Weather History for Charlottetown, PE

Change the Weather History Date:

Wednesday, June 12, 2013

  Actual Average Record
Temperature  
Mean Temperature 54 °F -  
Max Temperature 58 °F 70 °F 82 °F (1999)
Min Temperature 50 °F 52 °F 33 °F (2000)
Degree Days  
Heating Degree Days 11    
Growing Degree Days 4 (Base 50)    
Moisture  
Dew Point 52 °F    
Average Humidity 90    
Maximum Humidity 100    
Minimum Humidity 71    
Precipitation  
Precipitation 0.20 in 0.11 in - ()
Sea Level Pressure  
Sea Level Pressure 29.72 in    
Wind  
Wind Speed 8 mph ()    
Max Wind Speed 15 mph    
Max Gust Speed 18 mph    
Visibility 12.6 miles    
Events Rain    
Averages and records for this station are not official NWS values.
T = Trace of Precipitation, MM = Missing Value Source: Averaged Metar Reports

Daily Weather History Graph

Daily Weather History Graph

Search for Another Location

Airport:

Trip Planner

Search our weather history database for the weather conditions in past years. The results will help you decide how hot, cold, wet, or windy it might be!

Date:

Astronomy

Jun. 12, 2013 Rise Set
Actual Time 5:20 AM ADT 9:04 PM ADT
Civil Twilight 4:41 AM ADT 9:43 PM ADT
Nautical Twilight 3:49 AM ADT 10:36 PM ADT
Astronomical Twilight 2:36 AM ADT 11:49 PM ADT
Moon 9:05 AM ADT (6/12) 11:26 PM ADT (6/12)
Length of Visible Light 17h 02m
Length of Day
15h 44m
Waxing Crescent, 14% of the Moon is Illuminated
Jun 12
Waxing Crescent
Jun 16
First Quarter
Jun 23
Full
Jun 30
Last Quarter
Jul 8
New

Hourly Weather History & Observations

Time (ADT) Temp. Dew Point Humidity Pressure Visibility Wind Dir Wind Speed Gust Speed Precip Events Conditions
12:00 AM 57.2 °F 51.8 °F 82% 29.82 in 15.0 mi SSE 5.8 mph - N/A   Overcast
1:00 AM 57.2 °F 50.0 °F 77% 29.79 in 15.0 mi SE 6.9 mph - N/A   Overcast
2:00 AM 55.4 °F 51.8 °F 88% 29.79 in 15.0 mi East 4.6 mph - N/A   Overcast
3:00 AM 55 °F 52 °F 84% 29.77 in 15 mi East 6.9 mph - -   Overcast
3:00 AM 55.4 °F 51.8 °F 88% 29.77 in 15.0 mi East 6.9 mph - N/A   Overcast
3:26 AM 55.4 °F 51.8 °F 88% 29.76 in 15.0 mi East 5.8 mph - N/A Rain Light Rain Showers
4:00 AM 55.4 °F 51.8 °F 88% 29.75 in 15.0 mi East 6.9 mph - N/A   Overcast
4:41 AM 55.4 °F 51.8 °F 88% 29.75 in 15.0 mi ENE 6.9 mph - N/A   Overcast
5:00 AM 55.4 °F 51.8 °F 88% 29.75 in 15.0 mi ENE 8.1 mph - N/A   Overcast
5:44 AM 55.4 °F 51.8 °F 88% 29.75 in 15.0 mi ENE 6.9 mph - N/A Rain Light Rain Showers
6:00 AM 53.6 °F 51.8 °F 94% 29.75 in 15.0 mi ENE 8.1 mph - N/A Rain Light Rain Showers
7:00 AM 53.6 °F 51.8 °F 94% 29.74 in 15.0 mi East 10.4 mph - N/A Rain Light Rain Showers
8:00 AM 55.4 °F 51.8 °F 88% 29.74 in 15.0 mi ESE 12.7 mph 18.4 mph N/A Rain Light Rain Showers
9:00 AM 55 °F 53 °F 90% 29.73 in 15 mi East 10.4 mph - - Rain Light Rain Showers
9:00 AM 55.4 °F 53.6 °F 94% 29.73 in 15.0 mi East 9.2 mph - N/A Rain Light Rain Showers
10:00 AM 55.4 °F 53.6 °F 94% 29.73 in 15.0 mi East 11.5 mph 18.4 mph N/A Rain Light Rain Showers
11:00 AM 55.4 °F 53.6 °F 94% 29.72 in 15.0 mi East 10.4 mph - N/A Rain Light Rain Showers
12:00 PM 57.2 °F 53.6 °F 88% 29.71 in 15.0 mi East 10.4 mph - N/A Rain Light Rain Showers
1:00 PM 57.2 °F 53.6 °F 88% 29.70 in 15.0 mi East 10.4 mph 17.3 mph N/A   Overcast
1:26 PM 57.2 °F 53.6 °F 88% 29.70 in 15.0 mi East 12.7 mph - N/A Rain Light Rain Showers
2:00 PM 59.0 °F 51.8 °F 77% 29.70 in 15.0 mi East 12.7 mph - N/A Rain Light Rain Showers
3:00 PM 59 °F 52 °F 71% 29.70 in 15 mi East 11.5 mph - - Rain Light Rain Showers
3:00 PM 59.0 °F 51.8 °F 77% 29.70 in 15.0 mi East 11.5 mph - N/A Rain Light Rain Showers
3:30 PM 57.2 °F 53.6 °F 88% 29.69 in 15.0 mi NNE 13.8 mph - N/A Rain Light Rain Showers
4:00 PM 55.4 °F 51.8 °F 88% 29.69 in 15.0 mi NNE 12.7 mph - N/A Rain Light Rain Showers
5:00 PM 53.6 °F 51.8 °F 94% 29.69 in 15.0 mi NNE 13.8 mph - N/A Rain Light Rain Showers
6:00 PM 53.6 °F 51.8 °F 94% 29.69 in 12.0 mi NE 12.7 mph - N/A Rain Light Rain Showers
7:00 PM 51.8 °F 51.8 °F 100% 29.69 in 3.0 mi NNE 11.5 mph - N/A Rain Light Rain Showers
8:00 PM 51.8 °F 51.8 °F 100% 29.70 in 2.0 mi NNE 9.2 mph - N/A Rain Light Rain
8:10 PM 51.8 °F 51.8 °F 100% 29.70 in 2.0 mi NNE 10.4 mph - N/A Rain Light Rain
8:28 PM 51.8 °F 51.8 °F 100% 29.70 in 2.0 mi NE 10.4 mph - N/A Rain Rain
9:00 PM 53 °F 52 °F 95% 29.70 in 3 mi NE 12.7 mph - - Rain Light Rain
9:00 PM 53.6 °F 51.8 °F 94% 29.70 in 3.0 mi NE 11.5 mph 18.4 mph N/A Rain Light Rain
10:00 PM 51.8 °F 51.8 °F 100% 29.70 in 10.0 mi NNE 12.7 mph - N/A Rain Light Rain
11:00 PM 51.8 °F 50.0 °F 94% 29.68 in 10.0 mi NNE 15.0 mph - N/A Rain Light Rain
11:09 PM 50.0 °F 50.0 °F 100% 29.68 in 15.0 mi NNE 13.8 mph - N/A Rain Light Rain
11:35 PM 50.0 °F 50.0 °F 100% 29.68 in 15.0 mi NNE 13.8 mph - N/A   Overcast